Wind_Speed
113 114 112 107 106 106 104 99 96 95 93 91 90 86 88 84 81 79 78 78 77 74 72 73 67 62 58 59 58 56 48 48 46 43 41 39 40 39 36 36 38 38 37 34 31 32 37
118 118 116 113 110 109 108 107 105 103 98 96 95 93 90 88 89 87 84 83 82 79 78 76 74 71 65 63 65 61 59 55 51 47 47 47 44 40 40 34 35 39 40 43 38 36 38
122 122 122 120 117 115 112 109 107 107 103 103 102 100 96 94 92 91 92 89 85 85 81 81 81 77 75 71 68 66 66 57 60 53 48 50 45 45 45 42 43 44 42 39 38 40 41
125 123 123 123 122 120 118 119 113 112 112 111 108 107 104 102 98 96 95 94 91 89 87 84 84 81 77 76 71 74 69 62 63 59 56 53 52 51 53 52 49 49 43 40 36 41 41
130 129 128 129 127 127 127 121 118 119 119 113 112 111 111 108 104 101 101 100 95 94 93 91 87 86 83 84 77 73 73 71 72 65 64 62 58 59 59 55 55 57 51 45 41 46 42
138 136 135 132 132 130 131 129 130 129 123 121 120 117 113 114 114 110 108 107 100 102 98 95 92 92 88 91 86 81 76 75 72 68 66 71 69 62 64 59 54 55 57 52 47 47 50
142 143 138 137 137 134 134 133 134 131 130 128 126 122 122 120 118 115 112 115 112 107 105 102 96 95 93 91 93 89 84 80 76 74 73 71 70 71 73 66 58 63 59 58 51 52 54
128 134 138 138 135 135 137 137 135 136 137 138 135 131 129 129 128 126 122 120 118 116 111 109 104 99 97 96 97 94 89 85 85 81 78 73 72 77 74 72 65 62 65 60 59 52 56
119 119 120 121 127 130 139 140 145 143 138 143 143 137 138 138 135 134 130 127 125 122 117 111 112 104 103 100 95 94 96 94 91 91 83 80 80 79 78 79 73 68 67 67 59 58 54
115 121 123 124 122 124 124 126 130 132 135 139 140 140 138 135 134 130 128 128 129 125 125 117 113 110 105 104 96 97 100 100 97 94 93 85 84 84 83 83 83 72 69 71 67 59 59
98 102 112 115 119 124 122 122 123 124 123 122 121 127 131 137 135 132 131 131 129 129 130 118 110 111 110 108 101 102 107 108 101 100 102 88 89 90 86 87 87 81 75 74 71 68 64
77 85 95 105 114 117 124 126 121 122 120 121 122 123 122 123 125 130 130 132 132 135 127 115 107 111 114 112 109 110 111 113 108 109 105 96 95 93 90 92 89 87 82 80 79 77 65
73 75 80 88 96 102 108 114 121 123 127 121 120 120 119 120 122 121 121 121 124 123 115 112 112 116 116 120 118 118 116 118 118 114 107 100 103 100 101 95 94 92 94 93 84 83 70
65 74 82 84 86 91 97 101 106 112 114 114 120 124 120 116 117 120 119 118 114 112 114 109 113 116 117 122 122 122 126 122 121 118 113 110 107 101 101 103 104 105 103 96 92 87 81
60 63 67 76 84 88 91 93 95 97 97 94 103 107 112 117 123 121 118 114 110 115 113 116 117 114 110 110 113 118 119 119 113 119 117 110 111 106 107 103 110 103 103 97 107 93 84
57 61 67 72 76 80 85 89 88 88 85 85 88 93 100 105 109 116 122 115 109 109 113 114 115 117 115 116 116 122 120 113 113 115 114 111 114 104 105 110 110 108 104 103 103 93 92
55 60 62 67 69 70 72 73 79 81 82 81 83 88 91 96 100 104 105 104 111 117 117 110 107 105 107 112 111 112 106 98 102 103 108 112 113 101 111 105 101 108 102 97 99 95 91
53 57 61 66 65 64 66 69 70 72 74 78 83 87 89 93 94 95 95 100 104 106 112 118 120 118 107 103 104 113 109 101 102 106 106 106 109 109 102 99 101 107 100 96 97 89 93
55 55 56 57 58 61 65 68 71 73 74 76 79 83 85 90 92 93 95 97 100 103 108 109 108 108 110 113 114 106 112 111 110 105 106 107 110 108 105 103 95 92 88 94 87 93 94
53 51 51 50 51 53 56 61 64 68 71 73 76 78 82 86 89 94 98 97 97 101 104 106 107 108 106 106 106 102 103 104 103 106 107 112 115 115 109 103 93 102 95 95 99 101 85
44 44 44 46 50 52 56 59 62 67 70 72 72 76 83 83 87 93 94 91 94 97 100 105 106 104 104 106 106 103 100 102 109 107 109 112 118 113 103 105 104 104 95 94 96 82 85
42 43 46 47 48 51 55 60 63 67 69 70 75 79 81 79 82 87 91 88 94 97 103 105 104 104 105 104 105 106 104 102 101 112 108 105 108 109 103 101 106 112 104 94 88 87 87
42 45 46 48 52 56 60 64 68 71 71 73 78 78 77 78 79 77 88 87 89 98 100 101 107 103 105 104 101 102 109 102 100 102 111 104 103 102 95 95 111 117 98 93 98 91 90
44 45 47 51 55 60 65 68 72 73 77 77 77 75 75 76 74 81 86 89 86 97 97 101 102 99 100 105 100 102 102 102 106 100 104 107 103 100 96 94 106 95 102 95 96 91 94
44 46 49 53 57 62 66 71 73 76 75 72 71 69 69 65 69 73 73 78 83 87 88 98 100 100 98 99 99 99 102 104 97 101 102 101 105 97 92 88 91 90 82 90 96 92 91
44 47 50 53 57 63 68 70 70 70 68 61 58 59 58 55 61 60 66 70 72 83 85 80 90 91 90 94 93 94 99 99 98 96 101 101 102 103 96 101 89 64 80 82 89 86 85
42 43 48 53 59 62 63 64 64 60 56 52 53 54 50 47 57 55 58 61 66 70 67 70 75 80 80 84 86 90 90 97 98 92 101 103 102 102 93 92 79 69 77 82 84 68 89
37 42 48 54 55 57 59 57 53 50 47 45 47 47 44 40 51 53 54 60 61 57 59 68 65 65 70 74 78 81 82 86 91 88 96 103 99 88 90 88 76 72 80 80 80 85 84
37 41 47 51 51 53 53 47 44 42 43 39 38 37 36 34 45 49 51 53 49 51 54 57 56 60 60 67 69 72 70 80 81 92 93 99 91 83 82 72 75 80 79 75 74 76 73
Wind_Direction
247 248 248 248 248 249 252 252 252 253 253 255 257 257 258 260 261 260 262 261 261 262 262 266 263 263 264 263 274 274 278 278 279 285 292 290 287 293 295 297 296 302 310 310 305 305 306
249 250 250 251 251 251 251 251 253 252 252 254 255 256 256 258 260 261 261 260 260 259 262 262 263 263 262 263 269 273 267 272 278 282 286 291 290 293 300 290 292 292 296 306 301 302 306
248 250 250 251 251 252 253 252 252 253 253 255 254 254 255 256 259 260 260 260 259 259 261 263 262 262 265 265 265 267 268 266 271 273 280 284 284 289 292 301 297 293 291 301 295 297 300
245 248 250 251 252 254 253 254 254 255 256 255 254 254 253 255 256 259 258 257 258 259 260 261 263 261 262 262 262 263 266 263 267 266 269 276 283 285 286 290 295 304 293 294 295 301 299
243 246 249 251 252 254 255 254 255 258 259 255 256 254 254 255 253 255 256 258 258 257 258 259 260 260 262 262 261 263 260 259 264 269 267 269 275 278 284 283 287 293 298 291 289 293 297
244 245 247 249 251 253 254 255 257 258 257 256 255 254 254 254 254 255 254 256 254 259 260 258 257 260 260 262 262 259 260 263 266 266 268 273 270 273 278 281 281 287 288 295 287 283 291
246 244 247 250 251 250 254 255 257 257 257 257 257 255 256 256 255 256 255 253 254 258 261 260 258 257 259 260 263 260 260 262 265 268 269 266 270 275 272 278 281 281 282 287 289 288 286
246 248 246 248 249 251 251 252 254 256 257 258 258 256 257 256 256 256 255 256 256 257 256 258 256 256 255 258 260 261 261 261 264 265 263 263 265 268 271 273 275 276 280 280 286 289 284
244 246 248 248 248 251 251 252 253 254 254 257 257 257 257 256 256 258 255 257 257 257 253 254 255 253 255 256 258 262 262 263 262 266 264 261 261 266 269 271 271 272 273 278 277 279 282
240 241 241 243 245 249 250 251 251 253 252 253 253 253 256 256 255 255 255 254 255 255 253 252 255 253 256 257 258 260 262 263 263 263 264 262 263 266 266 266 270 270 269 276 273 274 275
240 241 239 240 243 244 244 248 252 252 252 251 253 252 253 255 256 256 257 257 257 257 255 253 251 253 254 255 256 259 259 261 263 262 262 263 262 264 266 267 269 271 271 269 271 269 270
241 243 243 243 243 244 244 244 243 249 251 251 254 255 256 255 256 255 256 256 257 257 258 257 255 253 255 255 256 258 258 262 261 262 262 263 264 265 266 264 267 270 268 266 266 268 265
244 244 244 244 244 244 245 246 245 247 246 249 249 253 254 255 256 257 257 257 257 259 261 258 256 254 254 256 255 255 256 257 261 261 264 262 261 258 260 263 264 265 264 263 264 267 267
246 246 246 247 247 246 246 246 247 247 248 248 249 247 249 250 252 257 258 257 260 261 261 259 256 254 254 255 256 257 255 257 259 261 261 262 261 264 263 263 261 259 261 264 267 265 264
252 252 250 250 250 250 250 251 251 253 253 252 250 250 251 252 247 251 252 254 254 255 256 259 259 259 257 255 256 255 254 256 257 259 261 262 261 262 261 260 259 261 262 263 262 265 265
254 254 253 253 252 254 254 255 256 258 256 253 252 252 251 251 251 249 247 245 247 250 252 252 253 256 257 258 257 258 257 258 259 259 261 261 262 260 259 256 259 263 263 263 266 266 269
258 256 256 256 257 259 260 261 260 259 258 257 256 255 254 254 253 254 253 252 251 250 248 247 252 252 250 253 258 258 256 256 258 259 259 258 256 254 255 259 261 259 260 261 262 264 265
257 258 258 257 258 258 258 257 255 254 254 253 253 253 253 254 255 255 254 253 252 251 250 249 248 247 248 249 248 253 256 254 251 251 252 253 253 253 254 252 251 255 257 259 260 266 266
257 256 255 257 257 257 257 258 257 256 256 255 255 256 255 257 257 255 254 253 253 253 252 251 251 251 249 248 247 245 246 252 252 248 250 251 252 255 252 249 253 258 257 259 264 262 261
256 255 254 256 257 257 258 259 260 260 260 260 260 259 259 257 256 255 254 252 253 253 252 252 251 250 250 249 250 247 240 239 246 252 250 250 248 248 251 253 253 249 249 254 257 257 262
255 251 253 255 257 260 261 262 263 263 262 262 262 261 259 258 258 258 258 256 255 254 253 252 251 250 248 246 246 246 243 238 237 244 247 246 247 248 248 250 254 254 252 255 254 260 262
247 251 254 258 261 265 267 267 269 271 272 273 272 269 266 263 260 259 259 258 255 254 251 250 249 249 247 246 244 242 242 241 235 235 241 243 248 252 248 249 255 253 251 253 258 261 261
250 255 259 264 268 270 273 274 275 275 276 276 274 272 269 267 264 261 259 254 251 250 252 251 249 245 246 246 245 242 242 238 238 235 237 241 244 247 249 247 246 249 256 254 252 257 258
253 258 264 270 274 276 277 280 281 281 281 280 277 277 273 269 265 259 257 254 251 249 246 248 249 247 246 244 242 241 240 238 237 236 236 237 241 244 246 241 244 252 253 256 257 258 259
259 265 272 277 280 281 283 282 282 281 282 282 279 274 270 267 262 261 258 254 253 253 250 247 247 246 244 243 240 238 238 238 235 233 235 236 236 239 243 243 243 248 256 256 257 258 257
266 272 277 281 284 284 283 283 283 283 283 280 277 272 270 270 266 261 258 254 251 251 250 248 248 247 245 242 240 239 236 237 235 232 231 234 234 236 237 243 250 250 250 252 254 257 261
272 278 284 287 287 285 285 285 286 285 282 282 280 277 275 269 266 262 257 258 254 253 253 251 249 246 243 241 240 239 235 235 232 231 230 230 232 234 236 243 246 243 247 248 250 255 253
278 284 289 292 291 290 288 290 287 286 286 286 280 277 274 270 264 261 258 254 254 254 250 247 245 245 241 238 237 236 233 232 231 229 228 230 232 233 234 236 239 244 244 247 248 249 250
283 290 297 296 294 292 294 291 289 290 288 285 283 282 276 265 263 262 259 257 256 253 249 246 244 244 238 234 233 233 229 227 223 224 223 224 228 231 234 236 234 239 245 247 248 251 252
Height
10727 10735 10746 10754 10762 10770 10778 10786 10794 10802 10808 10814 10820 10826 10833 10840 10845 10850 10855 10860 10864 10868 10872 10876 10881 10886 10890 10891 10895 10897 10899 10900 10900 10902 10903 10903 10902 10901 10901 10900 10901 10900 10899 10898 10894 10891 10889
10706 10712 10723 10734 10742 10750 10759 10768 10775 10784 10792 10797 10802 10808 10816 10824 10830 10835 10839 10844 10850 10854 10858 10862 10867 10872 10878 10881 10884 10887 10890 10893 10892 10893 10894 10895 10896 10895 10895 10894 10894 10894 10894 10892 10889 10885 10882
10685 10691 10701 10710 10719 10727 10738 10746 10755 10763 10771 10778 10785 10790 10797 10806 10813 10818 10822 10827 10833 10840 10844 10848 10854 10858 10864 10866 10873 10872 10877 10882 10884 10885 10886 10886 10887 10887 10887 10887 10886 10886 10887 10887 10884 10879 10876
10662 10670 10679 10687 10695 10704 10717 10724 10734 10741 10748 10757 10764 10771 10779 10786 10794 10800 10804 10808 10816 10823 10829 10834 10838 10843 10850 10850 10859 10859 10865 10869 10872 10876 10879 10878 10878 10878 10879 10879 10880 10879 10879 10881 10877 10874 10871
10641 10649 10659 10666 10674 10679 10688 10699 10710 10717 10725 10735 10742 10750 10758 10766 10773 10780 10784 10789 10798 10805 10813 10819 10824 10829 10834 10834 10841 10847 10850 10853 10859 10864 10867 10869 10869 10868 10869 10871 10872 10871 10870 10873 10874 10865 10864
10619 10627 10634 10643 10651 10658 10665 10671 10682 10690 10700 10709 10717 10727 10735 10742 10750 10759 10764 10768 10777 10785 10795 10803 10810 10812 10818 10816 10823 10831 10838 10839 10845 10851 10857 10856 10856 10858 10855 10860 10865 10861 10861 10862 10866 10863 10856
10595 10601 10612 10621 10630 10636 10642 10648 10654 10661 10671 10680 10690 10701 10710 10717 10725 10734 10740 10744 10756 10768 10781 10784 10795 10795 10802 10802 10803 10813 10821 10825 10830 10838 10841 10841 10845 10846 10840 10848 10854 10851 10850 10852 10857 10857 10849
10567 10578 10586 10595 10601 10609 10615 10624 10630 10635 10641 10650 10662 10672 10681 10692 10698 10706 10713 10721 10736 10747 10754 10760 10769 10778 10780 10783 10790 10793 10800 10809 10815 10820 10822 10831 10836 10826 10829 10834 10840 10840 10837 10840 10843 10850 10841
10546 10556 10561 10568 10573 10582 10588 10596 10605 10610 10617 10624 10632 10638 10648 10661 10667 10677 10689 10698 10704 10714 10724 10735 10744 10763 10760 10766 10778 10779 10777 10788 10796 10799 10808 10810 10815 10814 10817 10817 10821 10827 10824 10826 10832 10836 10834
10524 10531 10537 10545 10550 10558 10563 10568 10576 10582 10591 10599 10606 10609 10615 10627 10635 10646 10660 10669 10673 10682 10684 10713 10721 10745 10749 10747 10771 10765 10759 10760 10771 10780 10779 10793 10799 10800 10800 10803 10798 10812 10812 10811 10815 10820 10821
10501 10507 10513 10519 10527 10535 10540 10546 10551 10557 10566 10572 10580 10585 10590 10597 10606 10617 10631 10637 10643 10649 10644 10693 10719 10724 10730 10730 10747 10745 10731 10733 10751 10754 10753 10783 10782 10780 10785 10786 10784 10790 10795 10795 10796 10801 10808
10483 10487 10492 10496 10503 10509 10515 10522 10530 10534 10544 10550 10555 10561 10566 10573 10578 10590 10600 10607 10609 10608 10631 10677 10700 10700 10700 10708 10714 10712 10714 10706 10725 10721 10735 10759 10761 10763 10769 10762 10768 10768 10773 10774 10778 10780 10797
10465 10468 10471 10475 10481 10488 10492 10498 10503 10511 10521 10530 10536 10538 10542 10548 10555 10564 10571 10575 10578 10591 10628 10646 10661 10664 10669 10673 10682 10682 10691 10688 10689 10701 10715 10735 10730 10740 10741 10747 10751 10752 10745 10747 10760 10763 10780
10448 10450 10453 10458 10462 10466 10470 10475 10481 10486 10493 10509 10515 10521 10524 10529 10530 10535 10541 10552 10563 10588 10591 10601 10612 10623 10635 10645 10655 10655 10652 10665 10673 10676 10696 10699 10704 10727 10732 10728 10719 10720 10722 10734 10738 10743 10755
10431 10433 10436 10439 10441 10443 10448 10453 10460 10467 10476 10486 10490 10495 10495 10500 10506 10510 10517 10532 10551 10550 10562 10569 10574 10584 10601 10608 10614 10615 10625 10635 10653 10653 10660 10676 10677 10696 10696 10708 10684 10705 10704 10726 10699 10728 10739
10415 10416 10418 10420 10422 10426 10430 10435 10441 10446 10453 10461 10463 10465 10467 10473 10474 10481 10494 10519 10525 10518 10529 10540 10547 10556 10565 10571 10578 10585 10598 10622 10629 10633 10638 10654 10647 10672 10672 10664 10672 10678 10690 10691 10692 10710 10711
10399 10400 10401 10403 10406 10409 10413 10416 10420 10424 10431 10439 10440 10440 10445 10445 10450 10455 10474 10489 10490 10496 10503 10512 10517 10532 10544 10544 10548 10552 10575 10601 10602 10614 10616 10615 10610 10650 10627 10652 10670 10648 10663 10674 10675 10683 10688
10384 10385 10388 10390 10391 10392 10393 10396 10398 10402 10410 10414 10416 10416 10420 10420 10427 10438 10451 10453 10458 10463 10467 10478 10495 10512 10516 10516 10529 10528 10546 10564 10574 10578 10581 10587 10588 10596 10609 10629 10631 10621 10643 10654 10652 10673 10662
10371 10372 10372 10373 10375 10376 10378 10379 10380 10382 10388 10391 10395 10397 10401 10402 10409 10413 10416 10423 10428 10434 10435 10449 10460 10470 10479 10488 10496 10514 10530 10533 10539 10551 10556 10566 10560 10568 10582 10589 10615 10620 10632 10625 10643 10635 10637
10357 10357 10359 10361 10362 10364 10364 10363 10362 10362 10364 10369 10375 10379 10381 10379 10383 10383 10384 10393 10401 10403 10408 10415 10430 10436 10450 10462 10466 10487 10504 10518 10514 10516 10526 10529 10528 10537 10557 10578 10596 10583 10603 10610 10610 10606 10636
10344 10346 10347 10349 10351 10350 10348 10348 10346 10344 10346 10352 10357 10358 10352 10359 10358 10352 10357 10372 10377 10379 10383 10380 10391 10403 10415 10421 10430 10448 10466 10481 10492 10488 10488 10486 10494 10515 10551 10561 10563 10565 10585 10588 10585 10609 10609
10334 10335 10336 10338 10337 10335 10333 10330 10328 10325 10326 10332 10329 10328 10326 10333 10333 10331 10335 10350 10345 10348 10338 10342 10357 10370 10376 10386 10400 10415 10428 10443 10457 10463 10464 10460 10479 10496 10525 10547 10544 10537 10552 10570 10587 10593 10596
10322 10324 10325 10324 10323 10320 10317 10313 10310 10307 10306 10306 10300 10299 10298 10306 10301 10308 10300 10303 10310 10303 10311 10320 10314 10330 10339 10357 10376 10387 10389 10419 10435 10445 10446 10451 10460 10474 10507 10523 10511 10502 10549 10557 10557 10574 10580
10312 10313 10313 10312 10310 10306 10300 10295 10289 10284 10279 10277 10273 10269 10269 10273 10273 10265 10263 10263 10278 10266 10279 10285 10291 10306 10321 10318 10341 10353 10368 10384 10399 10425 10430 10439 10447 10456 10484 10478 10478 10528 10516 10533 10538 10551 10556
10302 10303 10302 10299 10295 10288 10283 10276 10270 10262 10256 10255 10248 10243 10241 10247 10239 10236 10240 10242 10245 10244 10256 10246 10258 10272 10283 10289 10307 10324 10341 10351 10384 10402 10410 10425 10432 10440 10456 10461 10475 10500 10521 10517 10517 10529 10533
10293 10291 10289 10284 10278 10272 10264 10256 10248 10241 10234 10232 10225 10219 10219 10225 10217 10219 10215 10212 10219 10210 10214 10241 10235 10243 10258 10266 10285 10301 10316 10337 10355 10375 10393 10400 10412 10419 10436 10438 10468 10510 10489 10498 10497 10513 10521
10281 10279 10274 10268 10262 10253 10244 10235 10227 10220 10214 10210 10205 10200 10203 10208 10195 10194 10193 10196 10192 10194 10207 10211 10215 10216 10233 10245 10259 10274 10296 10306 10324 10353 10364 10376 10385 10397 10429 10432 10470 10477 10473 10471 10479 10520 10488
10270 10266 10261 10252 10243 10234 10224 10216 10208 10203 10198 10195 10189 10185 10188 10190 10176 10174 10175 10169 10172 10181 10184 10178 10192 10205 10211 10224 10235 10251 10271 10288 10304 10336 10344 10355 10369 10398 10412 10427 10454 10457 10451 10461 10475 10472 10477
10259 10254 10247 10236 10226 10217 10208 10201 10194 10189 10185 10183 10178 10174 10175 10173 10161 10157 10155 10157 10164 10163 10164 10167 10178 10183 10193 10201 10218 10231 10251 10261 10290 10296 10319 10332 10362 10390 10400 10435 10438 10433 10439 10445 10454 10456 10461